GW5072 Weather Reports


time (UTC)temp
C
wind
direction
speed
KPH
gust
KPH
rain 1hr
cm
rain 24hr
cm
rain mn
cm
humidity
%
barometer
mb
20260509171511 28 325 0.0 1.6 0.00 0.00 0.00 78 1010.9
20260509171002 28 354 0.0 4.8 0.00 0.00 0.00 76 1010.9
20260509170508 28 342 1.6 4.8 0.00 0.00 0.00 75 1010.8
20260509170009 28 238 0.0 1.6 0.00 0.00 0.00 77 1010.8
20260509165502 28 315 0.0 1.6 0.00 0.00 0.00 79 1010.8
20260509165005 28 315 0.0 1.6 0.00 0.00 0.00 78 1010.8
20260509164507 28 255 0.0 1.6 0.00 0.00 0.00 79 1010.9
20260509164002 27 252 0.0 6.4 0.00 0.00 0.00 81 1010.8
20260509163507 27 251 0.0 6.4 0.00 0.00 0.00 81 1010.6
20260509163004 27 223 0.0 8.0 0.00 0.00 0.00 84 1010.4
20260509162508 26 223 0.0 8.0 0.00 0.00 0.00 83 1010.6
20260509162005 26 139 0.0 1.6 0.00 0.00 0.00 84 1010.7
20260509161506 26 160 0.0 1.6 0.00 0.00 0.00 85 1010.8
20260509161008 26 139 0.0 3.2 0.00 0.00 0.00 85 1011.0
20260509160504 26 214 0.0 3.2 0.00 0.00 0.00 86 1011.1
20260509160003 26 188 0.0 1.6 0.00 0.00 0.00 88 1011.0
20260509155503 25 236 0.0 1.6 0.00 0.00 0.00 88 1011.0
20260509155003 25 237 0.0 0.0 0.00 0.00 0.00 88 1011.2
20260509154519 25 236 0.0 1.6 0.00 0.00 0.00 87 1011.4
20260509154010 25 204 0.0 1.6 0.00 0.00 0.00 88 1011.1
20260509153502 25 225 0.0 0.0 0.00 0.00 0.00 88 1011.1
20260509153016 25 226 0.0 0.0 0.00 0.00 0.00 89 1011.2
20260509152504 25 225 0.0 1.6 0.00 0.00 0.00 89 1011.3
20260509152014 25 226 0.0 1.6 0.00 0.00 0.00 90 1011.1
20260509151514 25 227 0.0 1.6 0.00 0.00 0.00 90 1011.2
20260509151003 25 205 0.0 0.0 0.00 0.00 0.00 90 1011.2
20260509150510 25 204 0.0 0.0 0.00 0.00 0.00 92 1011.1
20260509150010 25 204 0.0 0.0 0.00 0.00 0.00 91 1011.0
20260509145504 24 167 0.0 0.0 0.00 0.00 0.00 92 1010.9
20260509145005 24 167 0.0 0.0 0.00 0.00 0.00 92 1011.0
20260509144510 24 167 0.0 0.0 0.00 0.00 0.00 93 1011.1
20260509144009 24 166 0.0 0.0 0.00 0.00 0.00 93 1011.1
20260509143503 24 166 0.0 1.6 0.00 0.00 0.00 93 1010.9
20260509143006 23 165 0.0 1.6 0.00 0.00 0.00 93 1010.7
20260509142507 23 220 0.0 3.2 0.00 0.00 0.00 94 1010.7
20260509142007 23 219 0.0 3.2 0.00 0.00 0.00 94 1010.4
20260509141503 23 203 0.0 1.6 0.00 0.00 0.00 94 1010.5
20260509141008 23 203 0.0 1.6 0.00 0.00 0.00 94 1010.5
20260509140502 23 235 0.0 0.0 0.00 0.00 0.00 95 1010.4
20260509140022 23 235 0.0 0.0 0.00 0.00 0.00 95 1010.5
20260509135504 23 236 0.0 0.0 0.00 0.00 0.00 95 1010.5
20260509135003 23 235 0.0 0.0 0.00 0.00 0.00 95 1010.9
20260509134522 23 235 0.0 0.0 0.00 0.00 0.00 95 1010.8
20260509134003 23 235 0.0 0.0 0.00 0.00 0.00 95 1011.0
20260509133506 23 235 0.0 0.0 0.00 0.00 0.00 95 1011.0
20260509133019 23 233 0.0 1.6 0.00 0.00 0.00 95 1011.0
20260509132505 23 213 0.0 1.6 0.00 0.00 0.00 96 1011.1
20260509132007 23 153 0.0 0.0 0.00 0.00 0.00 96 1011.0
20260509131514 23 153 0.0 0.0 0.00 0.00 0.00 96 1011.0
20260509131005 23 153 0.0 0.0 0.00 0.00 0.00 96 1011.1
20260509130509 23 152 0.0 0.0 0.00 0.00 0.00 96 1011.1
20260509130014 23 152 0.0 0.0 0.00 0.00 0.00 96 1011.1
20260509125509 22 152 0.0 0.0 0.00 0.00 0.00 96 1010.7
20260509125010 22 152 0.0 0.0 0.00 0.00 0.00 96 1010.8
20260509124511 22 152 0.0 0.0 0.00 0.00 0.00 96 1011.0
20260509124007 22 152 0.0 0.0 0.00 0.00 0.00 96 1010.9
20260509123503 22 152 0.0 0.0 0.00 0.00 0.00 96 1011.0
20260509123005 22 152 0.0 0.0 0.00 0.00 0.00 96 1011.0
20260509122508 22 152 0.0 0.0 0.00 0.00 0.00 96 1010.9
20260509122006 22 152 0.0 0.0 0.00 0.00 0.00 96 1010.8
20260509121527 22 152 0.0 0.0 0.00 0.00 0.00 96 1011.0
20260509121006 22 153 0.0 0.0 0.00 0.00 0.00 96 1010.9
20260509120504 22 153 0.0 0.0 0.00 0.00 0.00 96 1010.8
20260509120023 22 153 0.0 0.0 0.00 0.00 0.00 96 1010.6
20260509115506 22 153 0.0 0.0 0.00 0.00 0.00 96 1010.4
20260509115006 22 153 0.0 0.0 0.00 0.00 0.00 96 1010.3
20260509114525 22 153 0.0 0.0 0.00 0.00 0.00 96 1010.2
20260509114007 22 89 0.0 0.0 0.00 0.00 0.00 96 1010.6
20260509113507 22 89 0.0 0.0 0.00 0.00 0.00 96 1010.5
20260509113020 22 89 0.0 0.0 0.00 0.00 0.00 96 1010.6
20260509112503 22 89 0.0 0.0 0.00 0.00 0.00 96 1010.5
20260509112007 22 89 0.0 0.0 0.00 0.00 0.00 96 1010.6
20260509111526 22 89 0.0 0.0 0.00 0.00 0.00 96 1010.5
20260509111014 22 89 0.0 0.0 0.00 0.00 0.00 96 1010.5
20260509110507 22 89 0.0 0.0 0.00 0.00 0.00 96 1010.7
20260509110014 22 89 0.0 0.0 0.00 0.00 0.00 96 1010.7
20260509105507 22 89 0.0 0.0 0.00 0.00 0.00 96 1010.8
20260509105007 22 89 0.0 0.0 0.00 0.00 0.00 96 1010.7
20260509104523 22 89 0.0 0.0 0.00 0.00 0.00 96 1010.6
20260509104008 22 89 0.0 0.0 0.00 0.00 0.00 96 1010.5
20260509103503 22 89 0.0 0.0 0.00 0.00 0.00 96 1010.6
20260509103029 22 89 0.0 0.0 0.00 0.00 0.00 96 1010.8
20260509102510 22 89 0.0 0.0 0.00 0.00 0.00 95 1010.6
20260509102004 22 89 0.0 0.0 0.00 0.00 0.00 95 1010.4
20260509101530 22 89 0.0 0.0 0.00 0.00 0.00 96 1010.2
20260509101007 22 89 0.0 0.0 0.00 0.00 0.00 96 1010.2
20260509100504 22 89 0.0 0.0 0.00 0.00 0.00 96 1010.0
20260509100031 22 89 0.0 0.0 0.00 0.00 0.00 95 1010.0
20260509095508 22 89 0.0 0.0 0.00 0.00 0.00 96 1010.1
20260509095007 22 89 0.0 0.0 0.00 0.00 0.00 96 1010.0
20260509094527 22 89 0.0 0.0 0.00 0.00 0.00 96 1010.0
20260509094005 22 89 0.0 0.0 0.00 0.00 0.00 95 1010.0
20260509093507 22 89 0.0 0.0 0.00 0.00 0.00 95 1010.0
20260509093022 22 89 0.0 0.0 0.00 0.00 0.00 95 1010.1
20260509092503 22 89 0.0 0.0 0.00 0.00 0.00 95 1010.3
20260509092007 22 89 0.0 0.0 0.00 0.00 0.00 95 1010.3
20260509091517 22 89 0.0 0.0 0.00 0.00 0.00 95 1010.2
20260509091008 22 89 0.0 0.0 0.00 0.00 0.00 95 1010.1
20260509090509 22 89 0.0 0.0 0.00 0.00 0.00 95 1010.2
20260509090016 22 89 0.0 0.0 0.00 0.00 0.00 95 1010.2
20260509085508 22 89 0.0 0.0 0.00 0.00 0.00 95 1010.3
20260509085009 22 89 0.0 0.0 0.00 0.00 0.00 95 1010.4
20260509084528 22 89 0.0 0.0 0.00 0.00 0.00 95 1010.5
20260509084008 22 89 0.0 0.0 0.00 0.00 0.00 95 1010.6
20260509083507 22 89 0.0 0.0 0.00 0.00 0.00 95 1010.6
20260509083038 22 89 0.0 0.0 0.00 0.00 0.00 95 1010.5
20260509082508 22 89 0.0 0.0 0.00 0.00 0.00 95 1010.5
20260509082007 22 89 0.0 0.0 0.00 0.00 0.00 95 1010.7
20260509081528 22 89 0.0 0.0 0.00 0.00 0.00 95 1010.7
20260509081007 22 89 0.0 0.0 0.00 0.00 0.00 95 1010.6
20260509080507 22 89 0.0 0.0 0.00 0.00 0.00 95 1010.4
20260509080025 22 89 0.0 0.0 0.00 0.00 0.00 95 1010.3
20260509075506 22 89 0.0 0.0 0.00 0.00 0.00 95 1010.2
20260509075010 22 89 0.0 0.0 0.00 0.00 0.00 95 1010.3
20260509074522 22 89 0.0 0.0 0.00 0.00 0.00 95 1010.5
20260509074009 22 89 0.0 0.0 0.00 0.00 0.00 95 1010.4
20260509073508 22 89 0.0 0.0 0.00 0.00 0.00 95 1010.2
20260509073022 22 87 0.0 0.0 0.00 0.00 0.00 95 1010.1
20260509072508 22 87 0.0 0.0 0.00 0.00 0.00 95 1010.1
20260509072010 22 87 0.0 0.0 0.00 0.00 0.00 95 1010.3
20260509071519 22 87 0.0 0.0 0.00 0.00 0.00 95 1010.4
20260509071008 22 87 0.0 0.0 0.00 0.00 0.00 95 1010.2
20260509070509 22 87 0.0 0.0 0.00 0.00 0.00 95 1010.2
20260509070027 22 87 0.0 0.0 0.00 0.00 0.00 95 1010.2
20260509065511 22 87 0.0 0.0 0.00 0.00 0.00 95 1010.2
20260509065007 22 87 0.0 0.0 0.00 0.00 0.00 95 1010.2
20260509064530 22 87 0.0 0.0 0.00 0.00 0.00 95 1010.4
20260509064008 22 87 0.0 0.0 0.00 0.00 0.00 95 1010.4
20260509063505 22 87 0.0 1.6 0.00 0.00 0.00 95 1010.4
20260509063034 22 87 0.0 1.6 0.00 0.00 0.00 95 1010.3
20260509062512 22 87 0.0 0.0 0.00 0.00 0.00 95 1010.3
20260509062010 22 87 0.0 0.0 0.00 0.00 0.00 95 1010.3
20260509061512 22 88 0.0 1.6 0.00 0.00 0.00 95 1010.5
20260509061004 22 87 0.0 1.6 0.00 0.00 0.00 95 1010.7
20260509060503 22 87 0.0 1.6 0.00 0.00 0.00 95 1010.7
20260509060005 22 87 0.0 1.6 0.00 0.00 0.00 95 1010.7
20260509055501 22 87 0.0 1.6 0.00 0.00 0.00 95 1010.7
20260509055001 22 87 0.0 1.6 0.00 0.00 0.00 95 1010.7
20260509054503 22 87 0.0 1.6 0.00 0.00 0.00 95 1010.7
20260509054002 22 87 0.0 1.6 0.00 0.00 0.00 95 1010.9
20260509053503 22 87 0.0 1.6 0.00 0.00 0.00 95 1010.8
20260509053021 22 87 0.0 0.0 0.00 0.00 0.00 95 1010.8
20260509052503 22 87 0.0 0.0 0.00 0.00 0.00 95 1010.8
20260509052003 22 87 0.0 0.0 0.00 0.00 0.00 95 1010.9
20260509051508 22 87 0.0 0.0 0.00 0.00 0.00 95 1010.8
20260509051004 22 87 0.0 1.6 0.00 0.00 0.00 95 1010.9
20260509050506 22 87 0.0 1.6 0.00 0.00 0.00 95 1010.8
20260509050010 22 87 0.0 0.0 0.00 0.00 0.00 95 1010.7
20260509045504 22 87 0.0 1.6 0.00 0.00 0.00 95 1010.6
20260509045002 22 88 0.0 1.6 0.00 0.00 0.00 95 1010.7
20260509044508 22 87 0.0 1.6 0.00 0.00 0.00 95 1010.9
20260509044003 22 87 0.0 1.6 0.00 0.00 0.00 95 1011.0
20260509043506 22 87 0.0 0.0 0.00 0.00 0.00 95 1010.9
20260509043009 22 87 0.0 0.0 0.00 0.00 0.00 95 1010.8
20260509042505 22 87 0.0 0.0 0.00 0.00 0.00 95 1010.8
20260509042006 22 87 0.0 1.6 0.00 0.00 0.00 94 1010.9
20260509041507 22 87 0.0 1.6 0.00 0.00 0.00 94 1010.9
20260509041006 22 87 0.0 1.6 0.00 0.00 0.00 94 1010.9
20260509040503 22 87 0.0 0.0 0.00 0.00 0.00 94 1010.9
20260509040007 22 87 0.0 0.0 0.00 0.00 0.00 94 1010.8
20260509035505 22 87 0.0 0.0 0.00 0.00 0.00 94 1010.7
20260509035006 22 87 0.0 0.0 0.00 0.00 0.00 94 1010.6
20260509034511 22 87 0.0 0.0 0.00 0.00 0.00 94 1010.5
20260509034005 22 87 0.0 1.6 0.00 0.00 0.00 94 1010.5
20260509033506 22 88 0.0 1.6 0.00 0.00 0.00 94 1010.5
20260509033012 22 86 0.0 0.0 0.00 0.00 0.00 94 1010.5
20260509032506 22 88 0.0 0.0 0.00 0.00 0.00 94 1010.5
20260509032004 22 88 0.0 1.6 0.00 0.00 0.00 94 1010.6
20260509031516 22 88 0.0 1.6 0.00 0.00 0.00 94 1010.6
20260509031007 22 88 0.0 1.6 0.00 0.00 0.00 94 1010.5
20260509030504 22 87 0.0 1.6 0.00 0.00 0.00 94 1010.3
20260509030012 22 88 0.0 1.6 0.00 0.00 0.00 94 1010.3
20260509025503 22 88 0.0 1.6 0.00 0.00 0.00 94 1010.4
20260509025003 22 100 0.0 1.6 0.00 0.00 0.00 94 1010.2
20260509024512 22 101 0.0 1.6 0.00 0.00 0.00 94 1010.1
20260509024009 22 101 0.0 1.6 0.00 0.00 0.00 93 1010.0
20260509023507 22 87 0.0 1.6 0.00 0.00 0.00 93 1009.9
20260509023014 22 72 0.0 0.0 0.00 0.00 0.00 93 1010.0
20260509022505 22 72 0.0 0.0 0.00 0.00 0.00 93 1010.2
20260509022005 22 72 0.0 0.0 0.00 0.00 0.00 93 1010.1
20260509021511 22 72 0.0 0.0 0.00 0.00 0.00 93 1010.0
20260509021005 22 72 0.0 0.0 0.00 0.00 0.00 93 1010.0
20260509020509 22 72 0.0 0.0 0.00 0.00 0.00 93 1009.9
20260509020016 22 72 0.0 1.6 0.00 0.00 0.00 93 1009.9
20260509015506 22 71 0.0 1.6 0.00 0.00 0.00 92 1010.0
20260509015008 22 71 0.0 1.6 0.00 0.00 0.00 92 1009.9
20260509014520 22 73 0.0 0.0 0.00 0.00 0.00 92 1009.9
20260509014008 22 77 0.0 0.0 0.00 0.00 0.00 92 1009.9
20260509013506 22 77 0.0 0.0 0.00 0.00 0.00 91 1010.0
20260509013016 22 94 0.0 0.0 0.00 0.00 0.00 91 1010.1
20260509012505 22 94 0.0 0.0 0.00 0.00 0.00 91 1010.0
20260509012007 23 94 0.0 0.0 0.00 0.00 0.00 91 1009.9
20260509011518 23 94 0.0 0.0 0.00 0.00 0.00 90 1009.7
20260509011003 23 95 0.0 0.0 0.00 0.00 0.00 90 1009.7
20260509010503 23 75 0.0 0.0 0.00 0.00 0.00 90 1009.7
20260509010024 23 75 0.0 0.0 0.00 0.00 0.00 90 1009.6
20260509005505 23 75 0.0 0.0 0.00 0.00 0.00 90 1009.6
20260509005006 23 85 0.0 0.0 0.00 0.00 0.00 90 1009.5
20260509004531 23 80 0.0 0.0 0.00 0.00 0.00 89 1009.3
20260509004006 23 84 0.0 0.0 0.00 0.00 0.00 89 1009.3
20260509003507 23 81 0.0 0.0 0.00 0.00 0.00 89 1009.3
20260509003017 23 87 0.0 0.0 0.00 0.00 0.00 89 1009.2
20260509002503 23 72 0.0 1.6 0.00 0.00 0.00 88 1009.4
20260509002006 23 78 0.0 1.6 0.00 0.00 0.00 88 1009.4
20260509001518 23 76 0.0 1.6 0.00 0.00 0.00 88 1009.6
20260509001007 23 83 0.0 1.6 0.00 0.00 0.00 88 1009.8
20260509000509 23 83 0.0 1.6 0.00 0.00 0.00 88 1009.7
20260509000019 23 83 0.0 1.6 0.00 0.00 0.00 87 1009.7
20260508235508 23 84 0.0 1.6 0.00 0.00 0.00 87 1009.7
20260508235004 24 255 0.0 3.2 0.00 0.00 0.00 87 1009.8
20260508234521 24 76 0.0 3.2 0.00 0.00 0.00 86 1009.8
20260508234007 24 74 0.0 1.6 0.00 0.00 0.00 86 1009.8
20260508233504 24 75 0.0 1.6 0.00 0.00 0.00 86 1009.8
20260508233021 24 75 0.0 1.6 0.00 0.00 0.00 86 1009.7
20260508232506 24 75 0.0 1.6 0.00 0.00 0.00 85 1009.7
20260508232009 24 78 0.0 1.6 0.00 0.00 0.00 86 1009.7
20260508231521 24 77 0.0 1.6 0.00 0.00 0.00 86 1009.7
20260508231005 24 77 0.0 1.6 0.00 0.00 0.00 85 1009.7
20260508230508 25 78 0.0 1.6 0.00 0.00 0.00 85 1009.7
20260508230019 25 77 0.0 1.6 0.00 0.00 0.00 85 1009.7
20260508225512 25 77 0.0 3.2 0.00 0.00 0.00 85 1009.7
20260508225011 25 77 0.0 4.8 0.00 0.00 0.00 84 1009.7
20260508224527 25 76 1.6 4.8 0.00 0.00 0.00 83 1009.5
20260508224008 25 94 0.0 3.2 0.00 0.00 0.00 84 1009.5
20260508223508 25 89 0.0 1.6 0.00 0.00 0.00 83 1009.5
20260508223035 25 89 0.0 1.6 0.00 0.00 0.00 83 1009.6
20260508222507 25 89 0.0 1.6 0.00 0.00 0.00 83 1009.5
20260508222011 25 89 0.0 3.2 0.00 0.00 0.00 82 1009.5
20260508221524 25 94 0.0 3.2 0.00 0.00 0.00 82 1009.7
20260508221010 25 85 0.0 1.6 0.00 0.00 0.00 83 1009.7
20260508220507 25 83 0.0 1.6 0.00 0.00 0.00 83 1009.7
20260508220027 25 158 0.0 1.6 0.00 0.00 0.00 83 1009.7
20260508215508 25 226 0.0 0.0 0.00 0.00 0.00 83 1009.7
20260508215010 25 226 0.0 1.6 0.00 0.00 0.00 82 1009.9
20260508214522 25 226 0.0 1.6 0.00 0.00 0.00 82 1009.9
20260508214008 25 226 0.0 1.6 0.00 0.00 0.00 82 1010.1
20260508213506 25 77 0.0 1.6 0.00 0.00 0.00 82 1009.9
20260508213024 25 76 0.0 1.6 0.00 0.00 0.00 82 1009.9
20260508212505 26 79 0.0 1.6 0.00 0.00 0.00 81 1010.1
20260508212009 26 79 0.0 1.6 0.00 0.00 0.00 81 1010.2
20260508211517 25 79 0.0 3.2 0.00 0.00 0.00 81 1010.2
20260508211005 26 76 0.0 3.2 0.00 0.00 0.00 80 1010.1
20260508210507 26 99 0.0 3.2 0.00 0.00 0.00 80 1010.1
20260508210017 26 76 0.0 4.8 0.00 0.00 0.00 81 1010.0
20260508205507 25 41 1.6 4.8 0.00 0.00 0.00 82 1010.2
20260508205007 26 199 0.0 1.6 0.00 0.00 0.00 80 1010.4
20260508204518 25 199 0.0 1.6 0.00 0.00 0.00 81 1010.5
20260508204006 25 199 0.0 1.6 0.00 0.00 0.00 81 1010.5
20260508203507 25 251 0.0 1.6 0.00 0.00 0.00 80 1010.7
20260508203025 25 80 0.0 1.6 0.00 0.00 0.00 81 1010.6
20260508202505 25 247 0.0 1.6 0.00 0.00 0.00 83 1010.6
20260508202005 25 248 0.0 1.6 0.00 0.00 0.00 83 1010.7
20260508201516 25 240 0.0 1.6 0.00 0.00 0.00 83 1010.8
20260508201005 25 240 0.0 3.2 0.00 0.00 0.00 83 1010.9
20260508200507 24 255 0.0 3.2 0.00 0.00 0.00 84 1010.8
20260508200020 24 120 0.0 1.6 0.00 0.00 0.00 84 1010.8
20260508195508 24 88 0.0 1.6 0.00 0.00 0.00 84 1011.0
20260508195006 24 89 0.0 1.6 0.00 0.00 0.00 84 1011.0
20260508194520 24 89 0.0 1.6 0.00 0.00 0.00 84 1011.1
20260508194006 24 73 0.0 1.6 0.00 0.00 0.00 84 1011.2
20260508193503 24 72 0.0 3.2 0.00 0.00 0.00 85 1011.1
20260508193024 24 73 0.0 3.2 0.00 0.00 0.00 83 1011.1
20260508192507 24 81 0.0 1.6 0.00 0.00 0.00 83 1011.3
20260508192008 24 80 0.0 1.6 0.00 0.00 0.00 83 1011.4
20260508191534 24 95 0.0 3.2 0.00 0.00 0.00 83 1011.4
20260508191007 24 94 0.0 3.2 0.00 0.00 0.00 83 1011.4
20260508190505 23 123 0.0 1.6 0.00 0.00 0.00 84 1011.5
20260508190030 23 73 0.0 3.2 0.00 0.00 0.00 84 1011.5
20260508185506 23 72 0.0 3.2 0.00 0.00 0.00 84 1011.4
20260508185007 23 77 1.6 3.2 0.00 0.00 0.00 83 1011.5
20260508184524 24 74 1.6 3.2 0.00 0.00 0.00 82 1011.4
20260508184007 24 52 0.0 1.6 0.00 0.00 0.00 83 1011.5
20260508183506 23 88 0.0 3.2 0.00 0.00 0.00 83 1011.7
20260508183027 24 49 1.6 3.2 0.00 0.00 0.00 82 1011.8
20260508182508 23 258 0.0 3.2 0.00 0.00 0.00 84 1011.8
20260508182007 23 72 0.0 3.2 0.00 0.00 0.00 83 1011.7
20260508181515 23 51 1.6 3.2 0.00 0.00 0.00 84 1011.6
20260508181005 22 94 0.0 3.2 0.00 0.00 0.00 84 1011.6
20260508180509 22 81 0.0 3.2 0.00 0.00 0.00 84 1012.0
20260508180016 22 160 0.0 0.0 0.00 0.00 0.00 84 1011.9
20260508175503 22 162 0.0 0.0 0.00 0.00 0.00 85 1012.0
20260508175007 22 162 0.0 1.6 0.00 0.00 0.00 84 1012.2
20260508174510 22 181 0.0 1.6 0.00 0.00 0.00 84 1012.5
20260508174002 22 200 0.0 1.6 0.00 0.00 0.00 84 1012.6
20260508173508 22 70 0.0 1.6 0.00 0.00 0.00 84 1012.7
20260508173008 22 69 0.0 1.6 0.00 0.00 0.00 85 1012.6
20260508172506 22 68 0.0 1.6 0.00 0.00 0.00 84 1012.8
20260508172008 22 68 0.0 1.6 0.00 0.00 0.00 84 1012.8